Home > Weather > Bregenz > Past weeks

Flag for Austria Weather for the Past 2 Weeks in Bregenz, Vorarlberg, Austria

Now
39 °F

Chilly.


Feels Like: 39 °F
Forecast: 35 / 48 °F
Wind: No wind

Location: Bregenz

Current Time: Feb 12, 2016 at 11:54:31 PM

Latest Report: Feb 12, 2016 at 10:00 PM


Visibility: N/A

Pressure: 29.38 "Hg

Humidity: 83%

Dew point: 35 °F

Location of BregenzLocation

Historic Weather in Bregenz — Graph

°F

Bregenz Temperature Yesterday

Maximum temperature yesterday: 44 °F (at 3:00 PM)
Minimum temperature yesterday: 33 °F (at 9:00 PM)
Average temperature yesterday: 38 °F

High & Low Weather Summary for the Past Weeks

 TemperatureHumidityPressure
High59 °F (Feb 1, 3:00 PM)100% (Feb 6, 8:00 AM)30.51 "Hg (Feb 6, 8:00 AM)
Low33 °F (Feb 3, 10:00 AM)35% (Feb 7, 7:00 AM)29.26 "Hg (Feb 9, 7:00 PM)
Average43 °F76%30.01 "Hg
* Reported Jan 28 10:00 PM — Feb 12 10:00 PM, Bregenz, Weather by CustomWeather, © 2016

Note: Actual official high and low records may vary slightly from our data, if they occured in-between our weather recording intervals... More about our weather records

Advertising

Bregenz Weather History for the Previous 24 Hours

 ConditionsComfort  
Time TempWeatherWind HumidityBarometerVisibility
10:00 PM
Fri, Feb 12
39 °FChilly.No wind83%29.38 "HgN/A
9:00 PM40 °FQuite cool.1 mph72%29.38 "HgN/A
8:00 PM40 °FChilly.1 mph78%29.41 "HgN/A
7:00 PM44 °FQuite cool.2 mph56%29.38 "HgN/A
6:00 PM44 °FQuite cool.5 mph51%29.35 "HgN/A
5:00 PM44 °FQuite cool.1 mph54%29.35 "HgN/A
4:00 PM46 °FCool.1 mph48%29.35 "HgN/A
3:00 PM45 °FCool.1 mph50%29.41 "HgN/A
2:00 PM45 °FCool.1 mph52%29.44 "HgN/A
1:00 PM43 °FQuite cool.1 mph56%29.50 "HgN/A
12:00 PM42 °FQuite cool.2 mph63%29.58 "HgN/A
11:00 AM40 °FChilly.No wind68%29.62 "HgN/A
10:00 AM37 °FPassing clouds.5 mph72%29.66 "Hg16 mi
9:00 AM34 °FChilly.3 mph82%29.71 "HgN/A
8:00 AM35 °FChilly.3 mph79%29.74 "HgN/A
7:00 AM34 °FSnow flurries. Overcast.5 mph83%29.75 "Hg4 mi
5:00 AM35 °FChilly.1 mph78%29.77 "HgN/A
4:00 AM35 °FChilly.1 mph74%29.77 "HgN/A
Weather by CustomWeather, © 2016

See weather overviewHow to use our weather pages